QTR74X EGCC-OTHH

Flight info

Callsign QTR74X
Flight time 6h 26m
Altitude 33000
Route SONEX L975 DESIG L603 LAMSO/N0487F350 DCT OMELO DCT MAVOR DCT DEGET DCT NAVOD DCT ADORU UG80 EKI UN739 TUMER UT38 RESLI/N0481F370 UT38 VESAR DCT BALMA UR655 LEBOR R655 KTN R785 RASLI P559 TRF R23 NEVOL N318 TAMRO T503 KSA N687 KINIB Z511 GISRA L681 ORLEK
Aircraft A35K/H-SDE2E3GHIJ1J3J4J5LM1ORWXY/LB1D1

Departure

Time 2026-05-07 09:19
Airport Manchester Airport (EGCC)

Arrival

Time 2026-05-07 15:46
Airport Hamad International Airport (OTHH)
Time Latitude Longitude Altitude Speed Heading
2026-05-07 08:28 53.36458 -2.27773 251 ft 0 kts 44°
2026-05-07 09:06 53.36456 -2.27777 251 ft 3 kts 44°
2026-05-07 09:06 53.36437 -2.27807 250 ft 4 kts 47°
2026-05-07 09:07 53.36421 -2.27838 250 ft 4 kts 33°
2026-05-07 09:07 53.36401 -2.27856 250 ft 4 kts 11°
2026-05-07 09:07 53.36385 -2.27858 250 ft 4 kts 330°
2026-05-07 09:07 53.36370 -2.27835 250 ft 4 kts 304°
2026-05-07 09:08 53.36355 -2.27801 250 ft 2 kts 313°
2026-05-07 09:08 53.36351 -2.27793 250 ft 0 kts 314°
2026-05-07 09:10 53.36351 -2.27794 250 ft 0 kts 314°
2026-05-07 09:11 53.36364 -2.27816 250 ft 6 kts 315°
2026-05-07 09:11 53.36397 -2.27898 249 ft 9 kts 275°
2026-05-07 09:11 53.36362 -2.27985 249 ft 10 kts 223°
2026-05-07 09:11 53.36301 -2.28056 248 ft 11 kts 199°
2026-05-07 09:12 53.36219 -2.28081 247 ft 12 kts 172°
2026-05-07 09:12 53.36153 -2.27995 247 ft 13 kts 134°
2026-05-07 09:12 53.36090 -2.27888 247 ft 13 kts 135°
2026-05-07 09:12 53.36009 -2.27832 247 ft 13 kts 180°
2026-05-07 09:13 53.35913 -2.27846 246 ft 15 kts 184°
2026-05-07 09:13 53.35832 -2.27769 246 ft 14 kts 132°
2026-05-07 09:13 53.35758 -2.27661 246 ft 14 kts 154°
2026-05-07 09:13 53.35688 -2.27609 246 ft 9 kts 146°
2026-05-07 09:14 53.35669 -2.27585 246 ft 3 kts 143°
2026-05-07 09:14 53.35650 -2.27561 246 ft 4 kts 143°
2026-05-07 09:14 53.35625 -2.27528 246 ft 5 kts 140°
2026-05-07 09:14 53.35592 -2.27484 246 ft 8 kts 142°
2026-05-07 09:15 53.35524 -2.27392 247 ft 16 kts 141°
2026-05-07 09:15 53.35430 -2.27264 247 ft 18 kts 141°
2026-05-07 09:15 53.35351 -2.27195 246 ft 13 kts 169°
2026-05-07 09:15 53.35267 -2.27211 245 ft 11 kts 191°
2026-05-07 09:16 53.35195 -2.27235 245 ft 7 kts 192°
2026-05-07 09:16 53.35141 -2.27252 245 ft 8 kts 190°
2026-05-07 09:16 53.35080 -2.27272 244 ft 10 kts 191°
2026-05-07 09:16 53.35012 -2.27323 243 ft 12 kts 225°
2026-05-07 09:17 53.35001 -2.27342 242 ft 0 kts 229°
2026-05-07 09:18 53.34990 -2.27364 242 ft 9 kts 229°
2026-05-07 09:18 53.34838 -2.27677 237 ft 67 kts 231°
2026-05-07 09:19 53.34417 -2.28545 229 ft 124 kts 231°
2026-05-07 09:19 53.33765 -2.29891 249 ft 169 kts 231°
2026-05-07 09:19 53.33113 -2.31416 915 ft 162 kts 242°
2026-05-07 09:19 53.32968 -2.33293 1510 ft 169 kts 278°
2026-05-07 09:20 53.33527 -2.35090 1856 ft 184 kts 307°
2026-05-07 09:20 53.34515 -2.36601 2174 ft 202 kts 323°
2026-05-07 09:20 53.35739 -2.37924 2531 ft 216 kts 325°
2026-05-07 09:20 53.37033 -2.39382 2866 ft 234 kts 323°
2026-05-07 09:21 53.38410 -2.41036 3137 ft 253 kts 320°
2026-05-07 09:21 53.39819 -2.42956 3535 ft 267 kts 317°
2026-05-07 09:21 53.41367 -2.44700 4231 ft 271 kts 334°
2026-05-07 09:21 53.43183 -2.45562 5000 ft 273 kts 351°
2026-05-07 09:22 53.45063 -2.45552 5713 ft 276 kts
2026-05-07 09:22 53.46844 -2.44233 6329 ft 282 kts 40°
2026-05-07 09:22 53.47979 -2.41583 7008 ft 283 kts 72°
2026-05-07 09:22 53.48235 -2.38355 7743 ft 279 kts 90°
2026-05-07 09:23 53.48316 -2.35128 8420 ft 283 kts 87°
2026-05-07 09:23 53.48520 -2.31808 9078 ft 288 kts 85°
2026-05-07 09:23 53.48771 -2.28445 9775 ft 292 kts 84°
2026-05-07 09:23 53.49035 -2.25031 10361 ft 299 kts 84°
2026-05-07 09:24 53.49318 -2.21462 10677 ft 316 kts 83°
2026-05-07 09:24 53.49699 -2.17722 10979 ft 333 kts 81°
2026-05-07 09:24 53.50133 -2.13806 11285 ft 349 kts 81°
2026-05-07 09:24 53.50582 -2.09704 11592 ft 364 kts 81°
2026-05-07 09:25 53.51041 -2.05431 11945 ft 377 kts 81°
2026-05-07 09:25 53.51505 -2.01052 12504 ft 384 kts 81°
2026-05-07 09:25 53.51970 -1.96614 13133 ft 388 kts 81°
2026-05-07 09:25 53.52364 -1.92110 13744 ft 392 kts 87°
2026-05-07 09:26 53.52238 -1.87526 14304 ft 394 kts 100°
2026-05-07 09:26 53.51713 -1.83068 14880 ft 396 kts 104°
2026-05-07 09:26 53.50996 -1.78507 15476 ft 399 kts 107°
2026-05-07 09:26 53.50209 -1.74092 16052 ft 401 kts 108°
2026-05-07 09:27 53.49372 -1.69597 16615 ft 404 kts 109°
2026-05-07 09:27 53.48524 -1.65069 17197 ft 407 kts 109°
2026-05-07 09:27 53.46843 -1.55901 18380 ft 414 kts 108°
2026-05-07 09:28 53.46008 -1.51268 18891 ft 417 kts 108°
2026-05-07 09:28 53.45168 -1.46596 19430 ft 420 kts 108°
2026-05-07 09:28 53.44321 -1.41895 19993 ft 422 kts 108°
2026-05-07 09:28 53.43756 -1.38768 20370 ft 423 kts 108°
2026-05-07 09:29 53.42900 -1.34030 20923 ft 426 kts 108°
2026-05-07 09:29 53.42038 -1.29265 21501 ft 428 kts 108°
2026-05-07 09:29 53.41173 -1.24479 22061 ft 430 kts 108°
2026-05-07 09:29 53.40304 -1.19664 22632 ft 432 kts 107°
2026-05-07 09:30 53.39427 -1.14829 23191 ft 434 kts 108°
2026-05-07 09:30 53.38539 -1.09974 23737 ft 436 kts 108°
2026-05-07 09:30 53.37644 -1.05105 24184 ft 439 kts 107°
2026-05-07 09:30 53.36739 -1.00196 24595 ft 443 kts 107°
2026-05-07 09:31 53.35827 -0.95256 25019 ft 446 kts 107°
2026-05-07 09:31 53.34907 -0.90286 25450 ft 448 kts 107°
2026-05-07 09:31 53.33994 -0.85360 25884 ft 451 kts 107°
2026-05-07 09:31 53.33061 -0.80337 26311 ft 453 kts 107°
2026-05-07 09:32 53.32108 -0.75218 26735 ft 456 kts 107°
2026-05-07 09:32 53.31161 -0.70149 27155 ft 459 kts 107°
2026-05-07 09:32 53.30208 -0.65045 27586 ft 461 kts 107°
2026-05-07 09:32 53.29246 -0.59901 27987 ft 464 kts 107°
2026-05-07 09:33 53.28276 -0.54749 28391 ft 466 kts 107°
2026-05-07 09:33 53.27311 -0.49636 28779 ft 469 kts 107°
2026-05-07 09:33 53.26325 -0.44430 29148 ft 472 kts 107°
2026-05-07 09:33 53.25331 -0.39202 29508 ft 474 kts 107°
2026-05-07 09:34 53.24327 -0.33936 29855 ft 477 kts 107°
2026-05-07 09:34 53.23317 -0.28650 30181 ft 479 kts 107°
2026-05-07 09:34 53.22305 -0.23340 30467 ft 481 kts 107°
2026-05-07 09:34 53.21284 -0.18019 30768 ft 482 kts 107°
2026-05-07 09:35 53.20259 -0.12700 31204 ft 480 kts 107°
2026-05-07 09:35 53.19237 -0.07416 31680 ft 477 kts 107°
2026-05-07 09:35 53.18218 -0.02157 32109 ft 475 kts 107°
2026-05-07 09:35 53.17206 0.03071 32518 ft 474 kts 107°
2026-05-07 09:36 53.16190 0.08291 32919 ft 472 kts 107°
2026-05-07 09:36 53.15176 0.13479 33302 ft 471 kts 107°
2026-05-07 09:36 53.14163 0.18649 33686 ft 469 kts 107°
2026-05-07 09:36 53.13149 0.23806 34058 ft 467 kts 107°
2026-05-07 09:37 53.12139 0.28940 34331 ft 467 kts 107°
2026-05-07 09:37 53.11125 0.34080 34525 ft 467 kts 107°
2026-05-07 09:37 53.10108 0.39219 34705 ft 469 kts 107°
2026-05-07 09:37 53.09086 0.44373 34885 ft 470 kts 107°
2026-05-07 09:38 53.08060 0.49534 35084 ft 470 kts 107°
2026-05-07 09:38 53.07027 0.54715 35267 ft 471 kts 107°
2026-05-07 09:38 53.05994 0.59881 35451 ft 472 kts 108°
2026-05-07 09:38 53.04957 0.65059 35621 ft 472 kts 108°
2026-05-07 09:39 53.03916 0.70238 35790 ft 473 kts 108°
2026-05-07 09:39 53.02871 0.75426 35935 ft 474 kts 108°
2026-05-07 09:39 53.01823 0.80614 36110 ft 474 kts 108°
2026-05-07 09:39 53.00771 0.85806 36273 ft 475 kts 108°
2026-05-07 09:40 52.99716 0.91002 36443 ft 475 kts 108°
2026-05-07 09:40 52.98658 0.96203 36611 ft 475 kts 108°
2026-05-07 09:40 52.97773 1.01485 36749 ft 475 kts 102°
2026-05-07 09:40 52.97081 1.06856 36901 ft 476 kts 101°
2026-05-07 09:41 52.96434 1.12243 37014 ft 477 kts 101°
2026-05-07 09:41 52.95185 1.23106 37106 ft 482 kts 101°
2026-05-07 09:42 52.93932 1.34001 37102 ft 485 kts 101°
2026-05-07 09:42 52.92650 1.44959 37105 ft 484 kts 101°
2026-05-07 09:43 52.91350 1.55908 37103 ft 485 kts 101°
2026-05-07 09:43 52.90038 1.66856 37105 ft 485 kts 101°
2026-05-07 09:44 52.88713 1.77828 37105 ft 485 kts 101°
2026-05-07 09:44 52.87380 1.88773 37105 ft 485 kts 101°
2026-05-07 09:45 52.86037 1.99719 37106 ft 485 kts 101°
2026-05-07 09:45 52.84683 2.10662 37103 ft 486 kts 101°
2026-05-07 09:46 52.83320 2.21595 37105 ft 486 kts 101°
2026-05-07 09:46 52.81951 2.32481 37107 ft 486 kts 101°
2026-05-07 09:47 52.80564 2.43425 37104 ft 486 kts 102°
2026-05-07 09:47 52.79168 2.54365 37104 ft 487 kts 102°
2026-05-07 09:48 52.77760 2.65298 37107 ft 487 kts 102°
2026-05-07 09:48 52.76339 2.76247 37106 ft 487 kts 102°
2026-05-07 09:49 52.74912 2.87190 37102 ft 488 kts 102°
2026-05-07 09:49 52.73470 2.98122 37099 ft 488 kts 102°
2026-05-07 09:50 52.72079 3.09090 37093 ft 488 kts 101°
2026-05-07 09:50 52.70773 3.20084 37090 ft 489 kts 101°
2026-05-07 09:51 52.69456 3.31076 37095 ft 489 kts 101°
2026-05-07 09:51 52.68111 3.42069 37091 ft 490 kts 101°
2026-05-07 09:52 52.66746 3.53066 37091 ft 490 kts 102°
2026-05-07 09:52 52.65371 3.64060 37092 ft 490 kts 102°
2026-05-07 09:53 52.63991 3.75001 37090 ft 491 kts 102°
2026-05-07 09:53 52.62585 3.86072 37089 ft 491 kts 102°
2026-05-07 09:54 52.61174 3.97087 37091 ft 492 kts 102°
2026-05-07 09:54 52.59762 4.08030 37091 ft 493 kts 102°
2026-05-07 09:55 52.58328 4.19054 37090 ft 493 kts 102°
2026-05-07 09:55 52.56883 4.30087 37086 ft 494 kts 102°
2026-05-07 09:56 52.55427 4.41112 37079 ft 494 kts 102°
2026-05-07 09:56 52.53958 4.52146 37076 ft 494 kts 103°
2026-05-07 09:57 52.52479 4.63169 37082 ft 494 kts 103°
2026-05-07 09:57 52.50990 4.74184 37074 ft 494 kts 103°
2026-05-07 09:58 52.49490 4.85208 37075 ft 495 kts 103°
2026-05-07 09:58 52.47979 4.96219 37074 ft 495 kts 103°
2026-05-07 09:59 52.46456 5.07233 37071 ft 495 kts 103°
2026-05-07 09:59 52.44924 5.18241 37069 ft 495 kts 103°
2026-05-07 10:00 52.43380 5.29249 37074 ft 496 kts 103°
2026-05-07 10:00 52.41824 5.40260 37074 ft 496 kts 103°
2026-05-07 10:01 52.40268 5.51190 37073 ft 496 kts 104°
2026-05-07 10:01 52.38689 5.62203 37075 ft 496 kts 104°
2026-05-07 10:02 52.37103 5.73191 37068 ft 496 kts 104°
2026-05-07 10:02 52.35506 5.84176 37062 ft 496 kts 104°
2026-05-07 10:03 52.33899 5.95151 37049 ft 496 kts 104°
2026-05-07 10:03 52.32283 6.06103 37048 ft 496 kts 104°
2026-05-07 10:04 52.30654 6.17076 37048 ft 496 kts 104°
2026-05-07 10:04 52.29015 6.28033 37047 ft 496 kts 104°
2026-05-07 10:05 52.27368 6.38972 37049 ft 496 kts 104°
2026-05-07 10:05 52.25719 6.49848 37050 ft 496 kts 104°
2026-05-07 10:06 52.24051 6.60778 37052 ft 496 kts 105°
2026-05-07 10:06 52.22371 6.71708 37046 ft 496 kts 105°
2026-05-07 10:07 52.20681 6.82628 37049 ft 496 kts 105°
2026-05-07 10:07 52.18981 6.93538 37049 ft 496 kts 105°
2026-05-07 10:08 52.17273 7.04429 37047 ft 497 kts 105°
2026-05-07 10:08 52.15553 7.15325 37045 ft 497 kts 105°
2026-05-07 10:09 52.13823 7.26210 37044 ft 496 kts 105°
2026-05-07 10:09 52.12084 7.37085 37044 ft 496 kts 105°
2026-05-07 10:10 52.10334 7.47956 37047 ft 497 kts 105°
2026-05-07 10:10 52.08584 7.58755 37047 ft 496 kts 105°
2026-05-07 10:11 52.06815 7.69603 37047 ft 497 kts 105°
2026-05-07 10:11 52.05035 7.80445 37047 ft 497 kts 105°
2026-05-07 10:12 52.03245 7.91284 37040 ft 497 kts 106°
2026-05-07 10:12 52.01447 8.02103 37036 ft 497 kts 106°
2026-05-07 10:13 51.99635 8.12935 37031 ft 497 kts 106°
2026-05-07 10:13 51.97814 8.23753 37025 ft 497 kts 106°
2026-05-07 10:14 51.95982 8.34566 37022 ft 497 kts 106°
2026-05-07 10:14 51.94140 8.45373 37022 ft 497 kts 106°
2026-05-07 10:15 51.92601 8.54357 37022 ft 497 kts 107°
2026-05-07 10:15 51.90741 8.65146 37019 ft 497 kts 107°
2026-05-07 10:16 51.88869 8.75935 37018 ft 498 kts 107°
2026-05-07 10:16 51.86989 8.86711 37015 ft 498 kts 107°
2026-05-07 10:17 51.85098 8.97483 37016 ft 498 kts 107°
2026-05-07 10:17 51.83196 9.08249 37013 ft 498 kts 107°
2026-05-07 10:18 51.81285 9.19005 37007 ft 498 kts 107°
2026-05-07 10:18 51.79364 9.29757 37011 ft 498 kts 107°
2026-05-07 10:19 51.77431 9.40504 37005 ft 498 kts 108°
2026-05-07 10:19 51.75503 9.51166 37006 ft 498 kts 108°
2026-05-07 10:20 51.73553 9.61883 37003 ft 498 kts 108°
2026-05-07 10:20 51.71589 9.72616 36998 ft 498 kts 108°
2026-05-07 10:21 51.69618 9.83324 36998 ft 498 kts 108°
2026-05-07 10:21 51.67637 9.94028 36995 ft 498 kts 108°
2026-05-07 10:22 51.65645 10.04721 36989 ft 498 kts 108°
2026-05-07 10:22 51.63646 10.15399 36988 ft 498 kts 108°
2026-05-07 10:23 51.61647 10.26010 36986 ft 498 kts 109°
2026-05-07 10:23 51.59626 10.36679 36983 ft 498 kts 109°
2026-05-07 10:24 51.57597 10.47333 36985 ft 498 kts 109°
2026-05-07 10:24 51.55554 10.57995 36987 ft 498 kts 109°
2026-05-07 10:25 51.53506 10.68628 36982 ft 498 kts 109°
2026-05-07 10:25 51.51444 10.79270 36978 ft 498 kts 109°
2026-05-07 10:26 51.49375 10.89891 36983 ft 498 kts 109°
2026-05-07 10:26 51.47298 11.00497 36983 ft 499 kts 109°
2026-05-07 10:27 51.45207 11.11112 36981 ft 499 kts 110°
2026-05-07 10:27 51.43111 11.21697 36979 ft 499 kts 110°
2026-05-07 10:28 51.41013 11.32233 36975 ft 499 kts 110°
2026-05-07 10:28 51.38896 11.42805 36977 ft 499 kts 110°
2026-05-07 10:29 51.36768 11.53380 36972 ft 499 kts 110°
2026-05-07 10:29 51.34629 11.63948 36972 ft 499 kts 110°
2026-05-07 10:30 51.31405 11.79769 36975 ft 499 kts 110°
2026-05-07 10:30 51.29242 11.90316 36975 ft 499 kts 111°
2026-05-07 10:31 51.27071 12.00843 36982 ft 499 kts 111°
2026-05-07 10:31 51.24886 12.11382 36985 ft 500 kts 111°
2026-05-07 10:32 51.22691 12.21918 36981 ft 500 kts 111°
2026-05-07 10:32 51.20484 12.32455 36981 ft 500 kts 111°
2026-05-07 10:33 51.18282 12.42912 36967 ft 501 kts 111°
2026-05-07 10:33 51.16054 12.53435 36964 ft 501 kts 111°
2026-05-07 10:34 51.13817 12.63949 36965 ft 501 kts 111°
2026-05-07 10:34 51.11573 12.74443 36961 ft 501 kts 112°
2026-05-07 10:35 51.09316 12.84940 36960 ft 501 kts 112°
2026-05-07 10:35 51.07052 12.95417 36956 ft 501 kts 112°
2026-05-07 10:36 51.04774 13.05906 36955 ft 502 kts 112°
2026-05-07 10:36 51.02499 13.16326 36950 ft 502 kts 112°
2026-05-07 10:37 51.00203 13.26792 36950 ft 502 kts 112°
2026-05-07 10:37 50.97897 13.37244 36948 ft 502 kts 112°
2026-05-07 10:38 50.95581 13.47696 36947 ft 502 kts 113°
2026-05-07 10:38 50.93257 13.58128 36953 ft 502 kts 113°
2026-05-07 10:39 50.90921 13.68565 36957 ft 502 kts 113°
2026-05-07 10:39 50.88576 13.78987 36949 ft 502 kts 113°
2026-05-07 10:40 50.86237 13.89331 36941 ft 502 kts 114°
2026-05-07 10:40 50.83553 13.99458 36930 ft 495 kts 124°
2026-05-07 10:41 50.79548 14.08174 36925 ft 488 kts 133°
2026-05-07 10:41 50.75188 14.16374 36917 ft 487 kts 135°
2026-05-07 10:42 50.70772 14.24497 36907 ft 486 kts 135°
2026-05-07 10:42 50.66377 14.32609 36908 ft 486 kts 135°
2026-05-07 10:43 50.62017 14.40676 36910 ft 487 kts 135°
2026-05-07 10:43 50.57627 14.48789 36909 ft 487 kts 135°
2026-05-07 10:44 50.53235 14.56879 36911 ft 487 kts 135°
2026-05-07 10:44 50.48834 14.64961 36907 ft 487 kts 135°
2026-05-07 10:45 50.44423 14.73033 36909 ft 487 kts 135°
2026-05-07 10:45 50.39999 14.81105 36909 ft 488 kts 135°
2026-05-07 10:46 50.35570 14.89156 36913 ft 488 kts 135°
2026-05-07 10:46 50.31123 14.97219 36912 ft 489 kts 135°
2026-05-07 10:47 50.26670 15.05269 36912 ft 489 kts 135°
2026-05-07 10:47 50.22240 15.13250 36917 ft 489 kts 135°
2026-05-07 10:48 50.17770 15.21279 36917 ft 489 kts 136°
2026-05-07 10:48 50.13296 15.29289 36924 ft 489 kts 136°
2026-05-07 10:49 50.08816 15.37286 36931 ft 489 kts 136°
2026-05-07 10:49 50.04336 15.45260 36935 ft 489 kts 136°
2026-05-07 10:50 49.99885 15.53157 36933 ft 489 kts 136°
2026-05-07 10:50 49.95403 15.61086 36938 ft 488 kts 136°
2026-05-07 10:51 49.90911 15.69006 36931 ft 488 kts 136°
2026-05-07 10:51 49.86419 15.76902 36942 ft 487 kts 136°
2026-05-07 10:52 49.81928 15.84771 36938 ft 487 kts 136°
2026-05-07 10:52 49.77430 15.92629 36932 ft 487 kts 136°
2026-05-07 10:53 49.72930 16.00467 36936 ft 487 kts 137°
2026-05-07 10:53 49.68426 16.08289 36933 ft 487 kts 137°
2026-05-07 10:54 49.63942 16.16052 36934 ft 487 kts 137°
2026-05-07 10:54 49.59418 16.23861 36937 ft 487 kts 137°
2026-05-07 10:55 49.54924 16.31594 36931 ft 487 kts 137°
2026-05-07 10:55 49.50393 16.39370 36941 ft 487 kts 137°
2026-05-07 10:56 49.45868 16.47111 36943 ft 487 kts 137°
2026-05-07 10:56 49.41328 16.54854 36952 ft 487 kts 137°
2026-05-07 10:57 49.36786 16.62577 36951 ft 487 kts 137°
2026-05-07 10:57 49.32244 16.70277 36959 ft 487 kts 137°
2026-05-07 10:58 49.27701 16.77958 36959 ft 486 kts 137°
2026-05-07 10:58 49.23153 16.85624 36967 ft 486 kts 137°
2026-05-07 10:59 49.18596 16.93282 36962 ft 486 kts 137°
2026-05-07 10:59 49.14075 17.00858 36959 ft 486 kts 137°
2026-05-07 11:00 49.09507 17.08487 36958 ft 486 kts 137°
2026-05-07 11:00 49.04933 17.16106 36959 ft 487 kts 137°
2026-05-07 11:01 49.00352 17.23714 36962 ft 487 kts 137°
2026-05-07 11:01 48.95766 17.31308 36963 ft 487 kts 137°
2026-05-07 11:02 48.91167 17.38902 36965 ft 488 kts 137°
2026-05-07 11:02 48.86566 17.46479 36962 ft 488 kts 137°
2026-05-07 11:03 48.82735 17.52769 36968 ft 488 kts 137°
2026-05-07 11:03 48.78171 17.60410 36979 ft 489 kts 136°
2026-05-07 11:04 48.73679 17.68181 36989 ft 490 kts 136°
2026-05-07 11:04 48.69203 17.75900 36993 ft 490 kts 136°
2026-05-07 11:05 48.64684 17.83623 36992 ft 490 kts 136°
2026-05-07 11:05 48.60151 17.91323 36991 ft 490 kts 136°
2026-05-07 11:06 48.55614 17.99005 36987 ft 490 kts 136°
2026-05-07 11:06 48.51071 18.06679 36983 ft 490 kts 136°
2026-05-07 11:07 48.46523 18.14339 36974 ft 490 kts 136°
2026-05-07 11:07 48.41974 18.21978 36971 ft 490 kts 136°
2026-05-07 11:08 48.37409 18.29623 36962 ft 490 kts 136°
2026-05-07 11:08 48.32842 18.37248 36966 ft 491 kts 136°
2026-05-07 11:09 48.28301 18.44807 36965 ft 491 kts 136°
2026-05-07 11:09 48.23720 18.52412 36966 ft 491 kts 136°
2026-05-07 11:10 48.19132 18.60007 36964 ft 492 kts 136°
2026-05-07 11:10 48.14535 18.67595 36965 ft 492 kts 136°
2026-05-07 11:11 48.09926 18.75181 36967 ft 492 kts 137°
2026-05-07 11:11 48.05314 18.82751 36965 ft 493 kts 137°
2026-05-07 11:12 48.00693 18.90314 36962 ft 493 kts 137°
2026-05-07 11:12 47.96059 18.97876 36960 ft 493 kts 137°
2026-05-07 11:13 47.91417 19.05428 36956 ft 494 kts 137°
2026-05-07 11:13 47.86770 19.12970 36952 ft 494 kts 137°
2026-05-07 11:14 47.82116 19.20499 36974 ft 494 kts 137°
2026-05-07 11:14 47.77458 19.28009 36975 ft 494 kts 137°
2026-05-07 11:15 47.72786 19.35526 36983 ft 494 kts 137°
2026-05-07 11:15 47.68118 19.43014 36982 ft 494 kts 137°
2026-05-07 11:16 47.63475 19.50440 36983 ft 494 kts 137°
2026-05-07 11:16 47.58795 19.57906 36986 ft 494 kts 137°
2026-05-07 11:17 47.54103 19.65370 36989 ft 494 kts 137°
2026-05-07 11:17 47.49403 19.72825 36986 ft 495 kts 137°
2026-05-07 11:18 47.44730 19.80216 36988 ft 495 kts 137°
2026-05-07 11:18 47.40016 19.87652 36991 ft 495 kts 137°
2026-05-07 11:19 47.35300 19.95068 36992 ft 496 kts 137°
2026-05-07 11:19 47.30570 20.02487 36982 ft 496 kts 138°
2026-05-07 11:20 47.25922 20.09767 36990 ft 486 kts 138°
2026-05-07 11:20 47.21303 20.16975 36992 ft 483 kts 138°
2026-05-07 11:21 47.16689 20.24146 36994 ft 483 kts 138°
2026-05-07 11:21 47.12060 20.31322 36993 ft 483 kts 138°
2026-05-07 11:22 47.07432 20.38481 36992 ft 484 kts 138°
2026-05-07 11:22 47.02793 20.45638 36999 ft 484 kts 138°
2026-05-07 11:23 46.98154 20.52778 36999 ft 484 kts 138°
2026-05-07 11:23 46.93505 20.59913 37012 ft 484 kts 138°
2026-05-07 11:24 46.88858 20.67025 36998 ft 484 kts 138°
2026-05-07 11:24 46.84207 20.74125 37017 ft 484 kts 138°
2026-05-07 11:25 46.79550 20.81214 37018 ft 483 kts 138°
2026-05-07 11:25 46.74887 20.88294 37019 ft 483 kts 138°
2026-05-07 11:26 46.70250 20.95315 37024 ft 484 kts 138°
2026-05-07 11:26 46.65581 21.02365 37022 ft 484 kts 138°
2026-05-07 11:27 46.60904 21.09411 37026 ft 484 kts 138°
2026-05-07 11:27 46.56220 21.16447 37030 ft 484 kts 138°
2026-05-07 11:28 46.51527 21.23478 37032 ft 484 kts 138°
2026-05-07 11:28 46.46784 21.30407 37034 ft 483 kts 141°
2026-05-07 11:29 46.41735 21.36812 37041 ft 482 kts 144°
2026-05-07 11:29 46.36624 21.43117 37043 ft 483 kts 143°
2026-05-07 11:30 46.31571 21.49463 37044 ft 484 kts 143°
2026-05-07 11:30 46.26514 21.55883 37045 ft 484 kts 142°
2026-05-07 11:31 46.21451 21.62315 37042 ft 484 kts 142°
2026-05-07 11:31 46.16375 21.68744 37044 ft 485 kts 142°
2026-05-07 11:32 46.08757 21.78352 37043 ft 485 kts 142°
2026-05-07 11:33 46.03702 21.84704 37043 ft 485 kts 142°
2026-05-07 11:33 45.98615 21.91083 37045 ft 485 kts 142°
2026-05-07 11:34 45.93527 21.97447 37046 ft 485 kts 143°
2026-05-07 11:34 45.88428 22.03810 37046 ft 485 kts 143°
2026-05-07 11:35 45.83330 22.10155 37046 ft 485 kts 143°
2026-05-07 11:35 45.78258 22.16450 37046 ft 485 kts 143°
2026-05-07 11:36 45.73151 22.22772 37048 ft 485 kts 143°
2026-05-07 11:36 45.68040 22.29083 37050 ft 485 kts 143°
2026-05-07 11:37 45.62923 22.35387 37051 ft 485 kts 143°
2026-05-07 11:37 45.57797 22.41688 37047 ft 485 kts 143°
2026-05-07 11:38 45.52673 22.47971 37054 ft 486 kts 143°
2026-05-07 11:38 45.47539 22.54247 37059 ft 486 kts 143°
2026-05-07 11:39 45.42441 22.60468 37059 ft 485 kts 143°
2026-05-07 11:39 45.37300 22.66725 37061 ft 486 kts 143°
2026-05-07 11:40 45.32152 22.72973 37074 ft 486 kts 143°
2026-05-07 11:40 45.27008 22.79198 37073 ft 485 kts 143°
2026-05-07 11:41 45.21891 22.85379 37090 ft 485 kts 143°
2026-05-07 11:41 45.16744 22.91580 37088 ft 486 kts 143°
2026-05-07 11:42 45.11576 22.97791 37087 ft 486 kts 143°
2026-05-07 11:42 45.06444 23.03945 37089 ft 486 kts 143°
2026-05-07 11:43 45.01274 23.10126 37090 ft 486 kts 143°
2026-05-07 11:43 44.96103 23.16295 37085 ft 486 kts 143°
2026-05-07 11:44 44.90930 23.22452 37081 ft 487 kts 143°
2026-05-07 11:44 44.85741 23.28612 37079 ft 487 kts 143°
2026-05-07 11:45 44.80539 23.34772 37078 ft 488 kts 143°
2026-05-07 11:45 44.75371 23.40877 37072 ft 489 kts 143°
2026-05-07 11:46 44.70158 23.47020 37070 ft 488 kts 143°
2026-05-07 11:46 44.64939 23.53157 37074 ft 489 kts 143°
2026-05-07 11:47 44.59711 23.59289 37068 ft 489 kts 143°
2026-05-07 11:47 44.54519 23.65365 37068 ft 489 kts 143°
2026-05-07 11:48 44.49292 23.71466 37071 ft 489 kts 143°
2026-05-07 11:48 44.44053 23.77568 37072 ft 489 kts 143°
2026-05-07 11:49 44.38812 23.83655 37074 ft 490 kts 144°
2026-05-07 11:49 44.33563 23.89737 37077 ft 490 kts 143°
2026-05-07 11:50 44.28344 23.95771 37074 ft 490 kts 144°
2026-05-07 11:50 44.23085 24.01835 37071 ft 490 kts 143°
2026-05-07 11:51 44.17818 24.07893 37059 ft 491 kts 143°
2026-05-07 11:51 44.12543 24.13949 37061 ft 491 kts 143°
2026-05-07 11:52 44.07263 24.19995 37048 ft 491 kts 143°
2026-05-07 11:52 44.01975 24.26035 37040 ft 492 kts 143°
2026-05-07 11:53 43.97576 24.31049 37041 ft 492 kts 143°
2026-05-07 11:53 43.91405 24.38065 37035 ft 492 kts 143°
2026-05-07 11:54 43.86988 24.43076 37034 ft 492 kts 143°
2026-05-07 11:54 43.80816 24.50061 37032 ft 493 kts 143°
2026-05-07 11:55 43.76358 24.55095 37029 ft 493 kts 143°
2026-05-07 11:55 43.71059 24.61029 37032 ft 493 kts 144°
2026-05-07 11:56 43.65692 24.66946 37047 ft 493 kts 144°
2026-05-07 11:56 43.60327 24.72845 37042 ft 493 kts 144°
2026-05-07 11:57 43.54955 24.78754 37021 ft 493 kts 144°
2026-05-07 11:57 43.49584 24.84653 37039 ft 494 kts 144°
2026-05-07 11:58 43.44245 24.90504 37032 ft 494 kts 144°
2026-05-07 11:58 43.38848 24.96404 37030 ft 494 kts 144°
2026-05-07 11:59 43.33451 25.02291 37033 ft 495 kts 144°
2026-05-07 11:59 43.28043 25.08174 37033 ft 495 kts 144°
2026-05-07 12:00 43.22670 25.14008 37037 ft 496 kts 144°
2026-05-07 12:00 43.17251 25.19877 37036 ft 496 kts 144°
2026-05-07 12:01 43.11819 25.25747 37036 ft 497 kts 144°
2026-05-07 12:01 43.06380 25.31611 37038 ft 497 kts 144°
2026-05-07 12:02 43.00937 25.37465 37037 ft 498 kts 144°
2026-05-07 12:02 42.95526 25.43272 37036 ft 498 kts 144°
2026-05-07 12:03 42.90069 25.49114 37041 ft 498 kts 144°
2026-05-07 12:03 42.84609 25.54945 37046 ft 499 kts 144°
2026-05-07 12:04 42.79140 25.60774 37054 ft 499 kts 144°
2026-05-07 12:04 42.73659 25.66602 37058 ft 499 kts 144°
2026-05-07 12:05 42.68178 25.72417 37059 ft 500 kts 144°
2026-05-07 12:05 42.62720 25.78192 37067 ft 500 kts 144°
2026-05-07 12:06 42.57215 25.84006 37072 ft 501 kts 144°
2026-05-07 12:06 42.51715 25.89800 37069 ft 501 kts 144°
2026-05-07 12:07 42.46200 25.95597 37066 ft 501 kts 144°
2026-05-07 12:07 42.40677 26.01387 37069 ft 501 kts 144°
2026-05-07 12:08 42.35187 26.07131 37067 ft 502 kts 144°
2026-05-07 12:08 42.29657 26.12904 37066 ft 502 kts 144°
2026-05-07 12:09 42.24116 26.18674 37067 ft 503 kts 144°
2026-05-07 12:09 42.18571 26.24437 37072 ft 503 kts 144°
2026-05-07 12:10 42.13020 26.30193 37067 ft 504 kts 144°
2026-05-07 12:10 42.07457 26.35947 37074 ft 504 kts 144°
2026-05-07 12:11 42.01886 26.41699 37073 ft 505 kts 144°
2026-05-07 12:11 41.96298 26.47452 37074 ft 505 kts 144°
2026-05-07 12:12 41.90708 26.53194 37076 ft 506 kts 144°
2026-05-07 12:12 41.85141 26.58881 37084 ft 506 kts 146°
2026-05-07 12:13 41.79394 26.64350 37080 ft 506 kts 147°
2026-05-07 12:13 41.73600 26.69716 37080 ft 506 kts 147°
2026-05-07 12:14 41.67814 26.75115 37082 ft 507 kts 147°
2026-05-07 12:14 41.62067 26.80511 37083 ft 507 kts 147°
2026-05-07 12:15 41.56289 26.85935 37090 ft 507 kts 147°
2026-05-07 12:15 41.50502 26.91356 37083 ft 508 kts 147°
2026-05-07 12:16 41.44705 26.96774 37092 ft 508 kts 147°
2026-05-07 12:16 41.38907 27.02182 37091 ft 509 kts 147°
2026-05-07 12:17 41.33097 27.07582 37081 ft 509 kts 147°
2026-05-07 12:17 41.27283 27.12974 37089 ft 509 kts 147°
2026-05-07 12:18 41.21503 27.18325 37094 ft 510 kts 147°
2026-05-07 12:18 41.15677 27.23715 37095 ft 510 kts 147°
2026-05-07 12:19 41.09845 27.29086 37096 ft 510 kts 147°
2026-05-07 12:19 41.04000 27.34456 37100 ft 511 kts 147°
2026-05-07 12:20 40.98152 27.39820 37103 ft 511 kts 147°
2026-05-07 12:20 40.92307 27.45188 37105 ft 512 kts 147°
2026-05-07 12:21 40.86518 27.50576 37110 ft 512 kts 147°
2026-05-07 12:21 40.80688 27.56007 37111 ft 513 kts 147°
2026-05-07 12:22 40.74844 27.61428 37116 ft 514 kts 147°
2026-05-07 12:22 40.68979 27.66849 37116 ft 514 kts 147°
2026-05-07 12:23 40.63111 27.72260 37117 ft 515 kts 147°
2026-05-07 12:23 40.57271 27.77632 37115 ft 515 kts 147°
2026-05-07 12:24 40.51373 27.83047 37116 ft 516 kts 147°
2026-05-07 12:24 40.45474 27.88452 37115 ft 517 kts 147°
2026-05-07 12:25 40.39599 27.93822 37109 ft 517 kts 147°
2026-05-07 12:25 40.33678 27.99224 37107 ft 518 kts 147°
2026-05-07 12:26 40.27755 28.04615 37103 ft 519 kts 147°
2026-05-07 12:26 40.21824 28.10002 37107 ft 519 kts 147°
2026-05-07 12:27 40.15879 28.15389 37105 ft 520 kts 147°
2026-05-07 12:27 40.09920 28.20777 37107 ft 521 kts 147°
2026-05-07 12:28 40.03987 28.26131 37105 ft 522 kts 147°
2026-05-07 12:28 39.98000 28.31522 37108 ft 522 kts 147°
2026-05-07 12:29 39.92006 28.36907 37108 ft 523 kts 147°
2026-05-07 12:29 39.86033 28.42260 37112 ft 524 kts 147°
2026-05-07 12:30 39.80020 28.47639 37115 ft 524 kts 147°
2026-05-07 12:30 39.73998 28.53013 37119 ft 525 kts 147°
2026-05-07 12:31 39.67967 28.58386 37126 ft 525 kts 147°
2026-05-07 12:31 39.61969 28.63717 37129 ft 526 kts 147°
2026-05-07 12:32 39.55926 28.69076 37131 ft 526 kts 147°
2026-05-07 12:32 39.49868 28.74436 37134 ft 527 kts 147°
2026-05-07 12:33 39.40783 28.82455 37137 ft 527 kts 147°
2026-05-07 12:33 39.34713 28.87797 37138 ft 528 kts 147°
2026-05-07 12:34 39.28663 28.93112 37141 ft 529 kts 147°
2026-05-07 12:34 39.22574 28.98449 37144 ft 529 kts 147°
2026-05-07 12:35 39.16473 29.03785 37145 ft 529 kts 147°
2026-05-07 12:35 39.10372 29.09111 37145 ft 530 kts 147°
2026-05-07 12:36 39.04258 29.14434 37149 ft 530 kts 147°
2026-05-07 12:36 38.98187 29.19710 37149 ft 530 kts 147°
2026-05-07 12:37 38.92065 29.25020 37157 ft 530 kts 147°
2026-05-07 12:37 38.85943 29.30318 37169 ft 530 kts 147°
2026-05-07 12:38 38.79811 29.35614 37177 ft 531 kts 147°
2026-05-07 12:38 38.73716 29.40866 37183 ft 531 kts 147°
2026-05-07 12:39 38.67709 29.46366 37184 ft 531 kts 139°
2026-05-07 12:39 38.65131 29.49752 37189 ft 531 kts 128°
2026-05-07 12:39 38.62840 29.53457 37186 ft 531 kts 126°
2026-05-07 12:40 38.58470 29.61086 37181 ft 532 kts 124°
2026-05-07 12:40 38.54162 29.68782 37175 ft 532 kts 124°
2026-05-07 12:41 38.49861 29.76394 37166 ft 532 kts 125°
2026-05-07 12:41 38.45505 29.84030 37159 ft 532 kts 125°
2026-05-07 12:42 38.41132 29.91658 37163 ft 532 kts 125°
2026-05-07 12:42 38.36758 29.99269 37160 ft 532 kts 125°
2026-05-07 12:43 38.32380 30.06876 37161 ft 532 kts 125°
2026-05-07 12:43 38.27997 30.14478 37162 ft 532 kts 125°
2026-05-07 12:44 38.24356 30.20792 37168 ft 532 kts 125°
2026-05-07 12:44 38.19973 30.28373 37170 ft 531 kts 125°
2026-05-07 12:45 38.15585 30.35931 37170 ft 531 kts 125°
2026-05-07 12:45 38.11192 30.43482 37173 ft 531 kts 125°
2026-05-07 12:46 38.06824 30.50978 37181 ft 530 kts 125°
2026-05-07 12:46 38.02430 30.58502 37177 ft 530 kts 125°
2026-05-07 12:47 37.98037 30.66005 37178 ft 530 kts 125°
2026-05-07 12:47 37.93653 30.73504 37177 ft 529 kts 125°
2026-05-07 12:48 37.89267 30.80987 37176 ft 529 kts 125°
2026-05-07 12:48 37.84871 30.88471 37178 ft 529 kts 126°
2026-05-07 12:49 37.80506 30.95886 37182 ft 528 kts 126°
2026-05-07 12:49 37.76114 31.03329 37181 ft 528 kts 126°
2026-05-07 12:50 37.71714 31.10767 37176 ft 528 kts 126°
2026-05-07 12:50 37.67314 31.18190 37174 ft 528 kts 126°
2026-05-07 12:51 37.62907 31.25609 37173 ft 528 kts 126°
2026-05-07 12:51 37.58500 31.33009 37174 ft 528 kts 126°
2026-05-07 12:52 37.54082 31.40413 37171 ft 528 kts 126°
2026-05-07 12:52 37.49696 31.47748 37168 ft 528 kts 126°
2026-05-07 12:53 37.45268 31.55135 37168 ft 527 kts 126°
2026-05-07 12:53 37.40841 31.62504 37167 ft 527 kts 126°
2026-05-07 12:54 37.36415 31.69858 37167 ft 528 kts 126°
2026-05-07 12:54 37.31983 31.77206 37167 ft 528 kts 126°
2026-05-07 12:55 37.27533 31.84542 37163 ft 528 kts 126°
2026-05-07 12:55 37.23073 31.91881 37163 ft 528 kts 126°
2026-05-07 12:56 37.18608 31.99214 37166 ft 528 kts 126°
2026-05-07 12:56 37.14143 32.06536 37164 ft 528 kts 126°
2026-05-07 12:57 37.09702 32.13802 37165 ft 529 kts 127°
2026-05-07 12:57 37.05227 32.21109 37165 ft 529 kts 126°
2026-05-07 12:58 37.00742 32.28415 37163 ft 529 kts 127°
2026-05-07 12:58 36.96250 32.35716 37159 ft 528 kts 127°
2026-05-07 12:59 36.91763 32.42995 37156 ft 528 kts 127°
2026-05-07 12:59 36.87273 32.50262 37158 ft 528 kts 127°
2026-05-07 13:00 36.82779 32.57530 37154 ft 528 kts 127°
2026-05-07 13:00 36.78278 32.64790 37152 ft 528 kts 127°
2026-05-07 13:01 36.73777 32.72036 37147 ft 528 kts 127°
2026-05-07 13:01 36.69303 32.79223 37143 ft 528 kts 127°
2026-05-07 13:02 36.64795 32.86448 37136 ft 528 kts 127°
2026-05-07 13:02 36.60279 32.93671 37133 ft 528 kts 127°
2026-05-07 13:03 36.55763 33.00880 37129 ft 529 kts 127°
2026-05-07 13:03 36.51240 33.08081 37123 ft 529 kts 127°
2026-05-07 13:04 36.46711 33.15281 37117 ft 529 kts 127°
2026-05-07 13:04 36.42174 33.22477 37119 ft 529 kts 127°
2026-05-07 13:05 36.37625 33.29677 37121 ft 530 kts 127°
2026-05-07 13:05 36.33060 33.36879 37117 ft 531 kts 127°
2026-05-07 13:06 36.28479 33.44079 37120 ft 532 kts 128°
2026-05-07 13:06 36.23892 33.51276 37118 ft 532 kts 128°
2026-05-07 13:07 36.19335 33.58410 37123 ft 531 kts 128°
2026-05-07 13:07 36.14746 33.65584 37121 ft 531 kts 128°
2026-05-07 13:08 36.10155 33.72747 37118 ft 531 kts 128°
2026-05-07 13:08 36.05564 33.79893 37115 ft 530 kts 128°
2026-05-07 13:09 36.00977 33.87018 37115 ft 529 kts 128°
2026-05-07 13:09 35.96393 33.94123 37115 ft 529 kts 129°
2026-05-07 13:10 35.91548 34.00924 37114 ft 527 kts 140°
2026-05-07 13:10 35.85628 34.06066 37117 ft 523 kts 150°
2026-05-07 13:11 35.79384 34.10680 37111 ft 523 kts 152°
2026-05-07 13:11 35.73108 34.15207 37110 ft 523 kts 152°
2026-05-07 13:12 35.66841 34.19756 37108 ft 522 kts 152°
2026-05-07 13:12 35.60599 34.24311 37109 ft 522 kts 151°
2026-05-07 13:13 35.54357 34.28869 37107 ft 521 kts 152°
2026-05-07 13:13 35.48117 34.33416 37106 ft 520 kts 152°
2026-05-07 13:14 35.41892 34.37942 37108 ft 520 kts 152°
2026-05-07 13:14 35.35670 34.42456 37106 ft 519 kts 152°
2026-05-07 13:15 35.29451 34.46961 37106 ft 519 kts 152°
2026-05-07 13:15 35.23235 34.51456 37103 ft 518 kts 152°
2026-05-07 13:16 35.17032 34.55932 37102 ft 517 kts 152°
2026-05-07 13:16 35.10877 34.60367 37102 ft 516 kts 152°
2026-05-07 13:17 35.04693 34.64815 37102 ft 515 kts 152°
2026-05-07 13:17 34.98514 34.69250 37100 ft 515 kts 152°
2026-05-07 13:18 34.92339 34.73676 37098 ft 514 kts 152°
2026-05-07 13:18 34.86179 34.78082 37102 ft 513 kts 152°
2026-05-07 13:19 34.80022 34.82478 37097 ft 513 kts 153°
2026-05-07 13:19 34.73872 34.86862 37097 ft 512 kts 153°
2026-05-07 13:20 34.67723 34.91238 37094 ft 512 kts 153°
2026-05-07 13:20 34.61584 34.95599 37098 ft 511 kts 153°
2026-05-07 13:21 34.55455 34.99954 37094 ft 510 kts 152°
2026-05-07 13:21 34.49951 35.05327 37095 ft 516 kts 134°
2026-05-07 13:22 34.47772 35.08791 37086 ft 518 kts 123°
2026-05-07 13:22 34.46129 35.12675 37092 ft 520 kts 112°
2026-05-07 13:22 34.43678 35.20930 37092 ft 522 kts 109°
2026-05-07 13:23 34.41426 35.29287 37095 ft 522 kts 109°
2026-05-07 13:23 34.39147 35.37651 37096 ft 522 kts 109°
2026-05-07 13:24 34.36827 35.45984 37090 ft 522 kts 110°
2026-05-07 13:24 34.34483 35.54309 37091 ft 522 kts 110°
2026-05-07 13:25 34.32131 35.62636 37093 ft 522 kts 110°
2026-05-07 13:25 34.30189 35.71040 37094 ft 524 kts 98°
2026-05-07 13:26 34.29554 35.79814 37096 ft 524 kts 94°
2026-05-07 13:26 34.29171 35.88622 37088 ft 525 kts 93°
2026-05-07 13:27 34.28809 35.97437 37088 ft 525 kts 93°
2026-05-07 13:27 34.28451 36.06258 37087 ft 525 kts 92°
2026-05-07 13:28 34.28156 36.15100 37082 ft 526 kts 92°
2026-05-07 13:28 34.27857 36.23940 37077 ft 526 kts 93°
2026-05-07 13:29 34.27539 36.32793 37078 ft 527 kts 93°
2026-05-07 13:29 34.27209 36.41638 37070 ft 527 kts 93°
2026-05-07 13:30 34.26871 36.50494 37068 ft 526 kts 93°
2026-05-07 13:30 34.26527 36.59327 37066 ft 526 kts 93°
2026-05-07 13:31 34.25962 36.68153 37059 ft 526 kts 96°
2026-05-07 13:31 34.25350 36.75467 37050 ft 527 kts 97°
2026-05-07 13:32 34.24511 36.85715 37043 ft 527 kts 96°
2026-05-07 13:32 34.23822 36.94549 37039 ft 528 kts 96°
2026-05-07 13:33 34.23256 37.01894 37038 ft 528 kts 96°
2026-05-07 13:33 34.22568 37.10752 37030 ft 529 kts 96°
2026-05-07 13:34 34.19446 37.23322 37026 ft 519 kts 124°
2026-05-07 13:34 34.17342 37.26815 37025 ft 513 kts 135°
2026-05-07 13:35 34.14788 37.29768 37021 ft 506 kts 146°
2026-05-07 13:35 34.08809 37.34080 37040 ft 499 kts 158°
2026-05-07 13:35 34.05698 37.35937 37312 ft 496 kts 159°
2026-05-07 13:36 34.02639 37.37714 37670 ft 492 kts 159°
2026-05-07 13:36 33.99558 37.39496 38006 ft 490 kts 159°
2026-05-07 13:36 33.96485 37.41285 38275 ft 488 kts 159°
2026-05-07 13:36 33.93436 37.43072 38523 ft 487 kts 159°
2026-05-07 13:37 33.90379 37.44875 38734 ft 487 kts 158°
2026-05-07 13:37 33.87344 37.46672 38899 ft 486 kts 158°
2026-05-07 13:37 33.84338 37.48456 38989 ft 488 kts 158°
2026-05-07 13:38 33.78204 37.52090 39010 ft 493 kts 158°
2026-05-07 13:38 33.72042 37.55739 39013 ft 493 kts 158°
2026-05-07 13:39 33.65891 37.59376 39012 ft 492 kts 158°
2026-05-07 13:39 33.59743 37.63002 39006 ft 492 kts 158°
2026-05-07 13:40 33.53592 37.66619 38998 ft 492 kts 159°
2026-05-07 13:40 33.47468 37.70148 38997 ft 492 kts 159°
2026-05-07 13:41 33.41289 37.73681 38996 ft 492 kts 159°
2026-05-07 13:41 33.35099 37.77205 38996 ft 492 kts 159°
2026-05-07 13:42 33.28917 37.80713 38996 ft 492 kts 159°
2026-05-07 13:42 33.22725 37.84228 38992 ft 492 kts 159°
2026-05-07 13:43 33.16586 37.87710 38996 ft 492 kts 159°
2026-05-07 13:43 33.10403 37.91214 38993 ft 491 kts 159°
2026-05-07 13:44 33.04228 37.94706 38995 ft 491 kts 159°
2026-05-07 13:44 32.98054 37.98193 38995 ft 490 kts 159°
2026-05-07 13:45 32.91896 38.01693 38994 ft 490 kts 158°
2026-05-07 13:45 32.85796 38.05316 38992 ft 489 kts 158°
2026-05-07 13:46 32.79763 38.08942 38992 ft 488 kts 158°
2026-05-07 13:46 32.73660 38.12585 38992 ft 487 kts 158°
2026-05-07 13:47 32.67644 38.16155 38995 ft 486 kts 158°
2026-05-07 13:47 32.61598 38.19733 38996 ft 485 kts 158°
2026-05-07 13:48 32.55568 38.23297 38998 ft 484 kts 158°
2026-05-07 13:48 32.49543 38.26853 38999 ft 483 kts 158°
2026-05-07 13:49 32.43524 38.30401 39002 ft 483 kts 158°
2026-05-07 13:49 32.37514 38.33938 39001 ft 482 kts 159°
2026-05-07 13:50 32.31508 38.37467 39004 ft 481 kts 159°
2026-05-07 13:50 32.25504 38.40990 39004 ft 481 kts 159°
2026-05-07 13:51 32.19552 38.44478 39009 ft 480 kts 159°
2026-05-07 13:51 32.13571 38.47977 39008 ft 479 kts 159°
2026-05-07 13:52 32.07595 38.51469 39010 ft 479 kts 159°
2026-05-07 13:52 32.01633 38.54947 39010 ft 478 kts 159°
2026-05-07 13:53 31.95671 38.58419 39017 ft 478 kts 159°
2026-05-07 13:53 31.89716 38.61882 39017 ft 477 kts 160°
2026-05-07 13:54 31.83766 38.65338 39016 ft 476 kts 160°
2026-05-07 13:54 31.77861 38.68771 39022 ft 475 kts 160°
2026-05-07 13:55 31.71931 38.72212 39017 ft 475 kts 160°
2026-05-07 13:55 31.66145 38.76040 39020 ft 479 kts 155°
2026-05-07 13:56 31.60451 38.80105 39016 ft 479 kts 155°
2026-05-07 13:56 31.54767 38.84203 39022 ft 479 kts 155°
2026-05-07 13:57 31.49089 38.88286 39026 ft 478 kts 155°
2026-05-07 13:57 31.43413 38.92351 39021 ft 478 kts 155°
2026-05-07 13:58 31.37731 38.96410 39027 ft 478 kts 155°
2026-05-07 13:58 31.32056 39.00459 39024 ft 478 kts 155°
2026-05-07 13:59 31.26418 39.04475 39030 ft 478 kts 155°
2026-05-07 13:59 31.20735 39.08519 39027 ft 477 kts 155°
2026-05-07 14:00 31.15067 39.12547 39031 ft 477 kts 155°
2026-05-07 14:00 31.09389 39.16575 39032 ft 477 kts 155°
2026-05-07 14:01 31.03717 39.20595 39032 ft 477 kts 155°
2026-05-07 14:01 30.98054 39.24607 39038 ft 476 kts 155°
2026-05-07 14:02 30.92415 39.28588 39037 ft 476 kts 156°
2026-05-07 14:02 30.86747 39.32585 39041 ft 476 kts 156°
2026-05-07 14:03 30.81086 39.36573 39041 ft 476 kts 156°
2026-05-07 14:03 30.75418 39.40561 39037 ft 476 kts 156°
2026-05-07 14:04 30.69749 39.44545 39042 ft 475 kts 156°
2026-05-07 14:04 30.64116 39.48498 39044 ft 475 kts 156°
2026-05-07 14:05 30.58450 39.52469 39050 ft 475 kts 156°
2026-05-07 14:05 30.52783 39.56434 39047 ft 475 kts 156°
2026-05-07 14:06 30.47126 39.60387 39046 ft 475 kts 156°
2026-05-07 14:06 30.41691 39.64758 39045 ft 487 kts 145°
2026-05-07 14:07 30.37159 39.70729 39042 ft 499 kts 135°
2026-05-07 14:07 30.32993 39.77187 39044 ft 501 kts 134°
2026-05-07 14:08 30.28874 39.83700 39045 ft 501 kts 134°
2026-05-07 14:08 30.24727 39.90190 39044 ft 501 kts 134°
2026-05-07 14:09 30.20559 39.96651 39038 ft 501 kts 135°
2026-05-07 14:09 30.16386 40.03096 39041 ft 501 kts 135°
2026-05-07 14:10 30.12208 40.09540 39035 ft 501 kts 135°
2026-05-07 14:10 30.08054 40.15937 39033 ft 501 kts 135°
2026-05-07 14:11 30.03866 40.22380 39025 ft 501 kts 135°
2026-05-07 14:11 29.99683 40.28806 39028 ft 501 kts 135°
2026-05-07 14:12 29.95496 40.35235 39025 ft 501 kts 136°
2026-05-07 14:12 29.91307 40.41650 39028 ft 501 kts 136°
2026-05-07 14:13 29.87117 40.48057 39031 ft 501 kts 136°
2026-05-07 14:13 29.82923 40.54460 39026 ft 501 kts 136°
2026-05-07 14:14 29.78753 40.60819 39025 ft 500 kts 136°
2026-05-07 14:14 29.74799 40.67490 39024 ft 507 kts 131°
2026-05-07 14:15 29.71056 40.74385 39023 ft 508 kts 131°
2026-05-07 14:15 29.67349 40.81297 39021 ft 508 kts 131°
2026-05-07 14:16 29.63635 40.88206 39021 ft 507 kts 131°
2026-05-07 14:16 29.59912 40.95100 39029 ft 507 kts 131°
2026-05-07 14:17 29.56207 41.01940 39015 ft 506 kts 131°
2026-05-07 14:17 29.52484 41.08801 39020 ft 506 kts 132°
2026-05-07 14:18 29.48761 41.15650 39012 ft 505 kts 132°
2026-05-07 14:18 29.45036 41.22494 39013 ft 505 kts 132°
2026-05-07 14:19 29.41313 41.29323 39015 ft 504 kts 132°
2026-05-07 14:19 29.37588 41.36143 39010 ft 504 kts 132°
2026-05-07 14:20 29.33866 41.42958 39005 ft 504 kts 133°
2026-05-07 14:20 29.30143 41.49753 39006 ft 503 kts 133°
2026-05-07 14:21 29.27044 41.55399 39007 ft 503 kts 133°
2026-05-07 14:21 29.22704 41.63294 39003 ft 504 kts 133°
2026-05-07 14:22 29.18970 41.70079 38998 ft 504 kts 133°
2026-05-07 14:22 29.15834 41.75768 38993 ft 504 kts 133°
2026-05-07 14:23 29.12093 41.82546 38996 ft 504 kts 133°
2026-05-07 14:23 29.08360 41.89297 38998 ft 504 kts 133°
2026-05-07 14:24 29.04608 41.96077 38997 ft 505 kts 133°
2026-05-07 14:24 29.00848 42.02855 38995 ft 505 kts 133°
2026-05-07 14:25 28.97100 42.09589 38993 ft 505 kts 133°
2026-05-07 14:25 28.93320 42.16373 38991 ft 505 kts 133°
2026-05-07 14:26 28.89540 42.23150 38993 ft 506 kts 133°
2026-05-07 14:26 28.85754 42.29927 38992 ft 506 kts 133°
2026-05-07 14:27 28.81984 42.36665 38984 ft 507 kts 133°
2026-05-07 14:27 28.78181 42.43449 38985 ft 508 kts 133°
2026-05-07 14:28 28.74367 42.50243 38988 ft 508 kts 133°
2026-05-07 14:28 28.70557 42.57020 38976 ft 508 kts 133°
2026-05-07 14:29 28.66741 42.63796 38979 ft 508 kts 134°
2026-05-07 14:29 28.62605 42.70105 38980 ft 493 kts 142°
2026-05-07 14:30 28.58024 42.75877 38972 ft 490 kts 144°
2026-05-07 14:30 28.53376 42.81547 38972 ft 490 kts 144°
2026-05-07 14:31 28.48708 42.87231 38978 ft 491 kts 144°
2026-05-07 14:31 28.44056 42.92914 38973 ft 491 kts 144°
2026-05-07 14:32 28.39400 42.98606 38962 ft 491 kts 144°
2026-05-07 14:32 28.34738 43.04300 38964 ft 492 kts 144°
2026-05-07 14:33 28.30078 43.09982 38959 ft 492 kts 145°
2026-05-07 14:33 28.25438 43.15631 38961 ft 492 kts 145°
2026-05-07 14:34 28.20771 43.21304 38958 ft 492 kts 145°
2026-05-07 14:34 28.16097 43.26979 38950 ft 492 kts 145°
2026-05-07 14:35 28.11428 43.32641 38951 ft 491 kts 145°
2026-05-07 14:35 28.06759 43.38296 38943 ft 491 kts 145°
2026-05-07 14:36 28.02124 43.43901 38943 ft 491 kts 145°
2026-05-07 14:36 27.97448 43.49547 38943 ft 490 kts 146°
2026-05-07 14:37 27.92786 43.55168 38942 ft 490 kts 146°
2026-05-07 14:37 27.85788 43.63590 38945 ft 489 kts 146°
2026-05-07 14:38 27.81071 43.69106 38945 ft 485 kts 148°
2026-05-07 14:38 27.76199 43.74333 38938 ft 482 kts 149°
2026-05-07 14:39 27.71345 43.79497 38944 ft 483 kts 149°
2026-05-07 14:39 27.66481 43.84737 38944 ft 484 kts 149°
2026-05-07 14:40 27.61623 43.90004 38947 ft 484 kts 149°
2026-05-07 14:40 27.56771 43.95267 38944 ft 484 kts 149°
2026-05-07 14:41 27.51911 44.00528 38943 ft 484 kts 149°
2026-05-07 14:41 27.47045 44.05786 38943 ft 484 kts 149°
2026-05-07 14:42 27.42213 44.11000 38940 ft 484 kts 149°
2026-05-07 14:42 27.37342 44.16251 38943 ft 485 kts 148°
2026-05-07 14:43 27.32472 44.21492 38946 ft 485 kts 148°
2026-05-07 14:43 27.27597 44.26734 38945 ft 485 kts 148°
2026-05-07 14:44 27.22720 44.31972 38944 ft 484 kts 148°
2026-05-07 14:44 27.17844 44.37201 38945 ft 484 kts 148°
2026-05-07 14:45 27.12975 44.42427 38944 ft 484 kts 148°
2026-05-07 14:45 27.08104 44.47646 38949 ft 484 kts 148°
2026-05-07 14:46 27.03227 44.52863 38950 ft 485 kts 148°
2026-05-07 14:46 26.98372 44.58054 38954 ft 485 kts 148°
2026-05-07 14:47 26.93479 44.63274 38961 ft 485 kts 148°
2026-05-07 14:47 26.88586 44.68483 38958 ft 485 kts 148°
2026-05-07 14:48 26.83690 44.73689 38958 ft 485 kts 148°
2026-05-07 14:48 26.78785 44.78898 38972 ft 486 kts 148°
2026-05-07 14:49 26.73912 44.84067 38969 ft 486 kts 148°
2026-05-07 14:49 26.69425 44.88811 38967 ft 487 kts 148°
2026-05-07 14:50 26.64493 44.94016 38965 ft 488 kts 148°
2026-05-07 14:50 26.59546 44.99234 38970 ft 489 kts 148°
2026-05-07 14:51 26.54594 45.04462 38962 ft 490 kts 148°
2026-05-07 14:51 26.49627 45.09690 38964 ft 490 kts 148°
2026-05-07 14:52 26.44656 45.14916 38964 ft 491 kts 147°
2026-05-07 14:52 26.39710 45.20110 38963 ft 491 kts 147°
2026-05-07 14:53 26.34735 45.25331 38965 ft 490 kts 147°
2026-05-07 14:53 26.29801 45.30600 38958 ft 496 kts 143°
2026-05-07 14:54 26.27591 45.33608 38964 ft 508 kts 135°
2026-05-07 14:54 26.25771 45.37040 38959 ft 522 kts 124°
2026-05-07 14:54 26.24462 45.40869 38956 ft 535 kts 115°
2026-05-07 14:54 26.23520 45.44899 38961 ft 541 kts 110°
2026-05-07 14:55 26.22083 45.53170 38957 ft 545 kts 108°
2026-05-07 14:55 26.20747 45.61483 38952 ft 544 kts 108°
2026-05-07 14:56 26.19345 45.69693 38950 ft 542 kts 109°
2026-05-07 14:56 26.17881 45.77918 38938 ft 541 kts 109°
2026-05-07 14:57 26.16400 45.86131 38935 ft 540 kts 109°
2026-05-07 14:57 26.14920 45.94318 38933 ft 539 kts 109°
2026-05-07 14:58 26.13438 46.02504 38928 ft 539 kts 109°
2026-05-07 14:58 26.11956 46.10674 38922 ft 539 kts 109°
2026-05-07 14:59 26.10464 46.18866 38924 ft 539 kts 109°
2026-05-07 14:59 26.08971 46.27041 38921 ft 539 kts 109°
2026-05-07 15:00 26.07471 46.35223 38920 ft 540 kts 109°
2026-05-07 15:00 26.05968 46.43399 38917 ft 540 kts 109°
2026-05-07 15:01 26.04465 46.51549 38918 ft 540 kts 108°
2026-05-07 15:01 26.02952 46.59726 38920 ft 540 kts 108°
2026-05-07 15:02 26.01432 46.67914 38914 ft 541 kts 108°
2026-05-07 15:02 25.99904 46.76113 38912 ft 541 kts 108°
2026-05-07 15:03 25.98372 46.84308 38912 ft 541 kts 108°
2026-05-07 15:03 25.96836 46.92502 38911 ft 541 kts 108°
2026-05-07 15:04 25.95304 47.00645 38911 ft 541 kts 108°
2026-05-07 15:04 25.93759 47.08830 38908 ft 541 kts 108°
2026-05-07 15:05 25.92210 47.17010 38907 ft 541 kts 108°
2026-05-07 15:05 25.90654 47.25201 38904 ft 541 kts 108°
2026-05-07 15:06 25.89095 47.33382 38902 ft 541 kts 108°
2026-05-07 15:06 25.87533 47.41553 38898 ft 541 kts 108°
2026-05-07 15:07 25.85965 47.49729 38898 ft 541 kts 108°
2026-05-07 15:07 25.84403 47.57847 38891 ft 540 kts 108°
2026-05-07 15:08 25.82828 47.66007 38895 ft 540 kts 108°
2026-05-07 15:08 25.81247 47.74168 38885 ft 541 kts 108°
2026-05-07 15:09 25.79919 47.81005 38888 ft 541 kts 108°
2026-05-07 15:09 25.78341 47.89108 38887 ft 541 kts 108°
2026-05-07 15:10 25.76748 47.97265 38885 ft 541 kts 108°
2026-05-07 15:10 25.75148 48.05426 38882 ft 541 kts 108°
2026-05-07 15:11 25.73543 48.13593 38883 ft 541 kts 108°
2026-05-07 15:11 25.71934 48.21756 38883 ft 541 kts 108°
2026-05-07 15:12 25.70329 48.29869 38881 ft 541 kts 108°
2026-05-07 15:12 25.68780 48.38032 38879 ft 544 kts 103°
2026-05-07 15:13 25.68041 48.46424 38667 ft 547 kts 98°
2026-05-07 15:13 25.67761 48.50628 38347 ft 547 kts 98°
2026-05-07 15:13 25.67502 48.54841 37958 ft 547 kts 98°
2026-05-07 15:14 25.67249 48.59038 37586 ft 545 kts 98°
2026-05-07 15:14 25.66994 48.63231 37224 ft 545 kts 98°
2026-05-07 15:14 25.66733 48.67421 36862 ft 545 kts 98°
2026-05-07 15:14 25.66466 48.71617 36517 ft 545 kts 98°
2026-05-07 15:15 25.66194 48.75818 36171 ft 546 kts 98°
2026-05-07 15:15 25.65920 48.80019 35828 ft 546 kts 98°
2026-05-07 15:15 25.65643 48.84222 35493 ft 547 kts 98°
2026-05-07 15:15 25.65366 48.88419 35157 ft 547 kts 98°
2026-05-07 15:16 25.65086 48.92637 34831 ft 548 kts 98°
2026-05-07 15:16 25.64806 48.96843 34512 ft 548 kts 98°
2026-05-07 15:16 25.64524 49.01058 34191 ft 549 kts 98°
2026-05-07 15:16 25.64240 49.05282 33867 ft 550 kts 98°
2026-05-07 15:17 25.63956 49.09507 33505 ft 550 kts 98°
2026-05-07 15:17 25.63673 49.13684 33150 ft 550 kts 98°
2026-05-07 15:17 25.63385 49.17914 32801 ft 550 kts 98°
2026-05-07 15:17 25.63097 49.22138 32445 ft 549 kts 98°
2026-05-07 15:18 25.62809 49.26357 32094 ft 547 kts 98°
2026-05-07 15:18 25.62522 49.30548 31758 ft 544 kts 97°
2026-05-07 15:18 25.62236 49.34711 31418 ft 540 kts 97°
2026-05-07 15:18 25.61950 49.38849 31082 ft 537 kts 97°
2026-05-07 15:19 25.61664 49.42959 30753 ft 533 kts 97°
2026-05-07 15:19 25.61377 49.47043 30416 ft 530 kts 97°
2026-05-07 15:19 25.61090 49.51112 30096 ft 526 kts 97°
2026-05-07 15:19 25.60805 49.55143 29760 ft 523 kts 97°
2026-05-07 15:20 25.60520 49.59156 29383 ft 520 kts 97°
2026-05-07 15:20 25.60065 49.63110 28993 ft 512 kts 104°
2026-05-07 15:20 25.59195 49.66862 28437 ft 507 kts 111°
2026-05-07 15:20 25.58109 49.70545 28063 ft 499 kts 112°
2026-05-07 15:21 25.57007 49.74146 27699 ft 492 kts 112°
2026-05-07 15:21 25.55905 49.77714 27348 ft 488 kts 112°
2026-05-07 15:21 25.54808 49.81257 27004 ft 484 kts 112°
2026-05-07 15:21 25.53719 49.84769 26656 ft 481 kts 111°
2026-05-07 15:22 25.52634 49.88264 26313 ft 477 kts 111°
2026-05-07 15:22 25.51558 49.91724 25988 ft 473 kts 111°
2026-05-07 15:22 25.50490 49.95158 25651 ft 470 kts 111°
2026-05-07 15:22 25.49428 49.98567 25316 ft 466 kts 111°
2026-05-07 15:23 25.48374 50.01948 24997 ft 463 kts 111°
2026-05-07 15:23 25.47328 50.05301 24681 ft 459 kts 111°
2026-05-07 15:23 25.46289 50.08626 24358 ft 456 kts 111°
2026-05-07 15:23 25.45256 50.11931 24047 ft 453 kts 110°
2026-05-07 15:24 25.44244 50.15169 23745 ft 450 kts 110°
2026-05-07 15:24 25.43222 50.18430 23432 ft 446 kts 110°
2026-05-07 15:24 25.42209 50.21664 23075 ft 443 kts 110°
2026-05-07 15:24 25.41202 50.24876 22703 ft 440 kts 110°
2026-05-07 15:25 25.40203 50.28062 22335 ft 437 kts 110°
2026-05-07 15:25 25.39207 50.31232 21982 ft 434 kts 110°
2026-05-07 15:25 25.38219 50.34376 21647 ft 431 kts 110°
2026-05-07 15:25 25.37236 50.37500 21394 ft 428 kts 110°
2026-05-07 15:26 25.36259 50.40602 21141 ft 426 kts 110°
2026-05-07 15:26 25.35285 50.43691 20902 ft 423 kts 110°
2026-05-07 15:26 25.34339 50.46692 20595 ft 415 kts 110°
2026-05-07 15:26 25.33392 50.49692 20140 ft 411 kts 110°
2026-05-07 15:27 25.32455 50.52657 19712 ft 407 kts 110°
2026-05-07 15:27 25.31523 50.55603 19269 ft 404 kts 110°
2026-05-07 15:27 25.30600 50.58519 18813 ft 401 kts 110°
2026-05-07 15:27 25.29681 50.61420 18382 ft 398 kts 110°
2026-05-07 15:28 25.28769 50.64300 17906 ft 395 kts 110°
2026-05-07 15:28 25.27866 50.67146 17443 ft 391 kts 110°
2026-05-07 15:28 25.26972 50.69963 17003 ft 386 kts 110°
2026-05-07 15:28 25.26088 50.72743 16576 ft 381 kts 110°
2026-05-07 15:29 25.25214 50.75492 16143 ft 377 kts 110°
2026-05-07 15:29 25.24348 50.78212 15722 ft 373 kts 110°
2026-05-07 15:29 25.23492 50.80900 15303 ft 369 kts 110°
2026-05-07 15:29 25.22643 50.83561 14891 ft 365 kts 110°
2026-05-07 15:30 25.21805 50.86189 14483 ft 361 kts 109°
2026-05-07 15:30 25.20980 50.88776 14215 ft 353 kts 109°
2026-05-07 15:30 25.20178 50.91289 13859 ft 350 kts 109°
2026-05-07 15:30 25.19370 50.93816 13437 ft 347 kts 109°
2026-05-07 15:31 25.18568 50.96327 13038 ft 345 kts 109°
2026-05-07 15:31 25.17772 50.98818 12636 ft 343 kts 109°
2026-05-07 15:31 25.16980 51.01293 12238 ft 340 kts 109°
2026-05-07 15:31 25.16195 51.03745 11861 ft 338 kts 109°
2026-05-07 15:32 25.15414 51.06184 11460 ft 336 kts 109°
2026-05-07 15:32 25.14635 51.08610 11065 ft 334 kts 109°
2026-05-07 15:32 25.13863 51.11017 10694 ft 331 kts 109°
2026-05-07 15:32 25.13106 51.13374 10551 ft 319 kts 109°
2026-05-07 15:33 25.12387 51.15607 10425 ft 307 kts 109°
2026-05-07 15:33 25.11686 51.17788 10302 ft 295 kts 109°
2026-05-07 15:33 25.11012 51.19885 10177 ft 284 kts 109°
2026-05-07 15:33 25.10362 51.21904 10043 ft 274 kts 109°
2026-05-07 15:34 25.09723 51.23892 9766 ft 280 kts 109°
2026-05-07 15:34 25.09062 51.25946 9520 ft 286 kts 109°
2026-05-07 15:34 25.08394 51.28017 9200 ft 286 kts 109°
2026-05-07 15:34 25.07729 51.30081 8892 ft 285 kts 109°
2026-05-07 15:35 25.07066 51.32136 8608 ft 284 kts 109°
2026-05-07 15:35 25.06404 51.34185 8310 ft 283 kts 109°
2026-05-07 15:35 25.05746 51.36224 8040 ft 282 kts 109°
2026-05-07 15:35 25.05087 51.38259 7759 ft 281 kts 109°
2026-05-07 15:36 25.04432 51.40286 7480 ft 280 kts 109°
2026-05-07 15:36 25.03787 51.42280 7207 ft 279 kts 109°
2026-05-07 15:36 25.03136 51.44291 6927 ft 277 kts 109°
2026-05-07 15:36 25.02488 51.46293 6644 ft 276 kts 109°
2026-05-07 15:37 25.01843 51.48284 6356 ft 276 kts 109°
2026-05-07 15:37 25.01199 51.50270 6081 ft 274 kts 109°
2026-05-07 15:37 25.00563 51.52229 5927 ft 265 kts 109°
2026-05-07 15:37 24.99956 51.54102 5796 ft 254 kts 109°
2026-05-07 15:38 24.99378 51.55874 5688 ft 243 kts 109°
2026-05-07 15:38 24.98806 51.57632 5588 ft 239 kts 109°
2026-05-07 15:38 24.98255 51.59336 5461 ft 238 kts 109°
2026-05-07 15:38 24.97766 51.61070 5144 ft 237 kts 99°
2026-05-07 15:39 24.97755 51.62889 4805 ft 238 kts 85°
2026-05-07 15:39 24.98016 51.64685 4457 ft 239 kts 74°
2026-05-07 15:39 24.98678 51.66364 4113 ft 240 kts 62°
2026-05-07 15:39 24.99706 51.67808 3813 ft 240 kts 46°
2026-05-07 15:40 25.00926 51.69050 3589 ft 235 kts 43°
2026-05-07 15:40 25.02258 51.70023 3371 ft 228 kts 18°
2026-05-07 15:40 25.03809 51.70070 3122 ft 223 kts 349°
2026-05-07 15:40 25.05272 51.69536 2810 ft 221 kts 336°
2026-05-07 15:41 25.06677 51.68864 2566 ft 219 kts 337°
2026-05-07 15:41 25.08061 51.68238 2484 ft 208 kts 338°
2026-05-07 15:41 25.09344 51.67672 2492 ft 197 kts 338°
2026-05-07 15:41 25.10619 51.67116 2493 ft 196 kts 338°
2026-05-07 15:42 25.11895 51.66560 2493 ft 196 kts 338°
2026-05-07 15:42 25.13160 51.66007 2456 ft 192 kts 338°
2026-05-07 15:42 25.14385 51.65467 2257 ft 187 kts 338°
2026-05-07 15:42 25.15565 51.64945 2014 ft 178 kts 338°
2026-05-07 15:43 25.16683 51.64451 1788 ft 169 kts 338°
2026-05-07 15:43 25.17737 51.63985 1596 ft 157 kts 338°
2026-05-07 15:43 25.18701 51.63559 1387 ft 147 kts 338°
2026-05-07 15:43 25.19643 51.63144 1209 ft 145 kts 338°
2026-05-07 15:44 25.20583 51.62728 1029 ft 146 kts 337°
2026-05-07 15:44 25.21519 51.62302 865 ft 145 kts 338°
2026-05-07 15:44 25.22454 51.61900 702 ft 144 kts 339°
2026-05-07 15:44 25.23394 51.61487 534 ft 146 kts 339°
2026-05-07 15:45 25.24325 51.61067 364 ft 144 kts 340°
2026-05-07 15:45 25.25260 51.60677 148 ft 142 kts 341°
2026-05-07 15:45 25.26176 51.60277 30 ft 135 kts 339°
2026-05-07 15:45 25.26823 51.59986 21 ft 65 kts 337°
2026-05-07 15:46 25.27247 51.59829 22 ft 27 kts 357°
2026-05-07 15:46 25.27387 51.59842 27 ft 14 kts 18°
2026-05-07 15:46 25.27418 51.59912 27 ft 9 kts 113°
2026-05-07 15:47 25.27363 51.59949 32 ft 10 kts 156°
2026-05-07 15:47 25.27293 51.59981 29 ft 12 kts 158°
2026-05-07 15:47 25.27211 51.60017 31 ft 14 kts 158°
2026-05-07 15:47 25.27116 51.60058 30 ft 16 kts 158°
2026-05-07 15:48 25.27015 51.60103 28 ft 15 kts 158°
2026-05-07 15:48 25.26910 51.60150 27 ft 17 kts 158°
2026-05-07 15:48 25.26793 51.60202 31 ft 19 kts 158°
2026-05-07 15:48 25.26667 51.60257 30 ft 20 kts 158°
2026-05-07 15:49 25.26538 51.60315 30 ft 16 kts 158°
2026-05-07 15:49 25.26507 51.60383 27 ft 10 kts 78°
2026-05-07 15:49 25.26534 51.60462 27 ft 12 kts 68°
2026-05-07 15:49 25.26565 51.60549 28 ft 13 kts 68°
2026-05-07 15:50 25.26584 51.60648 28 ft 14 kts 100°
2026-05-07 15:50 25.26549 51.60752 28 ft 15 kts 112°
2026-05-07 15:50 25.26511 51.60852 28 ft 12 kts 107°
2026-05-07 15:50 25.26537 51.60929 28 ft 11 kts 31°
2026-05-07 15:51 25.26613 51.60970 28 ft 13 kts 26°
2026-05-07 15:51 25.26653 51.60991 28 ft 0 kts 25°